[[{"header":{"parameterUnit":"m.s-1","parameterCategory":2,"la1":30.2992,"la2":30.254,"lo1":-89.0895,"lo2":-89.0443,"dy":0.0025,"dx":0.0025,"nx":19,"ny":19,"refTime":"2026-05-03T21:00:00:Z","depth":"0","parameterNumber":2,"parameterNumberName":"U-component_of_CURRENTS"},"data":[0,0,0,0.3026,0.3028,0.3121,0.3121,0.33,0.3302,0,0,0,0,0,0,0,0,0,0,0,0.2984,0.2984,0.3026,0.3028,0.3121,0.3121,0.33,0.3302,0,0,0,0,0,0,0,0,0,0,0,0.2984,0.2984,0.2985,0.3029,0.3121,0.3121,0.3299,0.3214,0,0,0,0,0,0,0,0,0,0,0.3116,0.3069,0.2984,0.2985,0.3029,0.3121,0.3121,0.3209,0.3219,0.3276,0,0.3285,0,0.3307,0.3315,0.3316,0,0,0,0.3026,0.306,0.3089,0.2985,0.303,0.3121,0.3078,0.3214,0.3226,0.329,0.3288,0.3295,0.331,0.3317,0.3318,0.3476,0.3476,0,0,0.3021,0.3002,0.308,0.3096,0.3051,0.3075,0.3081,0.322,0.3231,0.3289,0.3299,0.3313,0.3318,0.332,0.3476,0.3476,0,0,0,0.3008,0.2999,0.3022,0.3088,0.3106,0.3078,0.3085,0.3224,0.3233,0.3301,0.3315,0.3319,0.3322,0.3476,0.3476,0.3503,0,0,0,0.3005,0.2992,0.302,0.301,0.3102,0.3159,0.3085,0.3222,0.3239,0.3314,0.3319,0.3324,0.3475,0.3476,0.3502,0.3495,0,0,0,0.298,0.299,0.2999,0.3009,0.3052,0.3156,0.3173,0.3226,0.3249,0.3316,0.3324,0.3475,0.3476,0.3501,0.3494,0.3535,0,0,0,0.296,0.2981,0.2998,0.3031,0.3051,0.3131,0.3172,0.3245,0.3301,0.332,0.3475,0.3476,0.35,0.3493,0.3534,0.3493,0.3496,0,0,0.2976,0.2983,0.3003,0.3021,0.309,0.3118,0.3213,0.3302,0.3327,0.3433,0.3437,0.3502,0.3494,0.3535,0.3522,0.3524,0,0,0,0.3002,0.3013,0.3038,0.3081,0.3141,0.3212,0.3291,0.3333,0.3418,0.3364,0.3505,0.3498,0.3524,0.3497,0.3498,0.3389,0.3478,0.3478,0.3478,0.2991,0.3028,0.3065,0.3122,0.3181,0.3293,0.3353,0.3423,0.3457,0.3489,0.3523,0.3573,0.3544,0.3545,0.3432,0.3536,0.3536,0.3536,0.3536,0.3004,0.3016,0.3075,0.3122,0.3209,0.3296,0.3433,0.3476,0.3567,0.3556,0.3581,0.3529,0.3548,0.3427,0.3538,0.3538,0.3538,0.3537,0.3537,0.2973,0.2983,0.3013,0.3087,0.3181,0.3305,0.3412,0.3514,0.3575,0.3606,0.3592,0.3591,0.3483,0.363,0.363,0.363,0.3631,0.3631,0.3631,0.2921,0.2954,0.2973,0.3062,0.3104,0.323,0.3403,0.3473,0.3571,0.3606,0.3606,0.3478,0.3601,0.3596,0.3633,0.3633,0.3633,0.3632,0.3632,0.2881,0.2894,0.2915,0.2944,0.3051,0.309,0.3284,0.3428,0.3528,0.3565,0.3475,0.3617,0.3605,0.3603,0.3597,0.3633,0.3633,0.3633,0.3633,0.2837,0.2855,0.2839,0.2859,0.2924,0.3021,0.3037,0.3191,0.3346,0.3359,0.3414,0.3361,0.3366,0.3337,0.334,0.3328,0.3295,0.3294,0.3294,0.2811,0.2812,0.2765,0.2787,0.2842,0.2892,0.283,0.2856,0.3094,0.327,0.327,0.3284,0.3197,0.3213,0.3159,0.3173,0.315,0,0]},{"header":{"parameterUnit":"m.s-1","parameterCategory":2,"la1":30.2992,"la2":30.254,"lo1":-89.0895,"lo2":-89.0443,"dy":0.0025,"dx":0.0025,"nx":19,"ny":19,"refTime":"2026-05-03T21:00:00:Z","depth":"0","parameterNumber":3,"parameterNumberName":"V-component_of_CURRENTS"},"data":[0,0,0,0.0316,0.0316,0.0319,0.0319,0.0297,0.0297,0,0,0,0,0,0,0,0,0,0,0,0.0314,0.0314,0.0316,0.0316,0.0319,0.0319,0.0298,0.0297,0,0,0,0,0,0,0,0,0,0,0,0.0314,0.0314,0.0314,0.0316,0.0319,0.0319,0.0298,0.0299,0,0,0,0,0,0,0,0,0,0,0.0298,0.0299,0.0314,0.0314,0.0316,0.0319,0.0319,0.0299,0.0299,0.0293,0,0.0302,0,0.0304,0.0296,0.0296,0,0,0,0.0305,0.03,0.0308,0.0314,0.0316,0.0319,0.0314,0.0299,0.0299,0.0292,0.0302,0.0301,0.0304,0.0296,0.0296,0.0337,0.0337,0,0,0.0305,0.0304,0.0308,0.0308,0.0328,0.0314,0.0315,0.0299,0.0298,0.0301,0.0301,0.0304,0.0296,0.0296,0.0336,0.0337,0,0,0,0.0312,0.0304,0.0312,0.0308,0.0314,0.0315,0.0315,0.0299,0.0304,0.03,0.0303,0.0296,0.0296,0.0336,0.0336,0.043,0,0,0,0.0311,0.0309,0.0312,0.0311,0.0315,0.0309,0.0315,0.0305,0.0304,0.0303,0.0296,0.0296,0.0335,0.0336,0.0426,0.0489,0,0,0,0.0312,0.0309,0.0314,0.0311,0.0318,0.031,0.0313,0.0305,0.0306,0.0296,0.0296,0.0335,0.0336,0.0423,0.0482,0.0544,0,0,0,0.0303,0.0333,0.0314,0.035,0.0318,0.0363,0.0313,0.0333,0.0333,0.0296,0.0335,0.0336,0.0422,0.0478,0.054,0.0643,0.0672,0,0,0.0342,0.0338,0.0361,0.0345,0.0404,0.0361,0.0423,0.0394,0.0348,0.0335,0.0336,0.0427,0.0481,0.0544,0.0718,0.0745,0,0,0,0.0375,0.0395,0.0408,0.0435,0.0451,0.0486,0.0454,0.0443,0.0431,0.0355,0.0428,0.0459,0.0495,0.0548,0.0569,0.0496,0.0342,0.0342,0.0342,0.0422,0.044,0.0497,0.0526,0.0552,0.0572,0.0592,0.057,0.0504,0.0513,0.0535,0.0648,0.0705,0.0722,0.0646,0.0522,0.0522,0.0522,0.0523,0.0508,0.0553,0.0576,0.0638,0.0669,0.0718,0.0732,0.0702,0.0709,0.0628,0.0657,0.0644,0.0751,0.0661,0.0529,0.0528,0.0527,0.0526,0.0526,0.0552,0.0583,0.0615,0.0713,0.0799,0.0832,0.0941,0.0897,0.0819,0.084,0.0877,0.0876,0.0798,0.0845,0.0846,0.0846,0.0847,0.0847,0.0847,0.0591,0.063,0.0712,0.0805,0.0886,0.1007,0.106,0.1086,0.1074,0.101,0.1009,0.0842,0.0747,0.0735,0.0856,0.0855,0.0853,0.0853,0.0852,0.0665,0.0678,0.0808,0.0892,0.1092,0.1283,0.1304,0.1393,0.1359,0.1386,0.1117,0.1094,0.1078,0.106,0.1056,0.1253,0.1253,0.1253,0.1253,0.071,0.0727,0.0909,0.1065,0.1261,0.1418,0.1657,0.1699,0.1511,0.1379,0.1238,0.1168,0.1155,0.1136,0.1117,0.111,0.1316,0.1316,0.1315,0.0772,0.0821,0.0958,0.1109,0.134,0.1582,0.1845,0.1967,0.1619,0.1303,0.1119,0.1116,0.0989,0.0975,0.0918,0.0898,0.0876,0,0]}],[{"header":{"parameterUnit":"m.s-1","parameterCategory":2,"la1":30.2992,"la2":30.254,"lo1":-89.0895,"lo2":-89.0443,"dy":0.0025,"dx":0.0025,"nx":19,"ny":19,"refTime":"2026-05-03T21:00:00:Z","depth":"2","parameterNumber":2,"parameterNumberName":"U-component_of_CURRENTS"},"data":[0,0,0,0.2623,0.2625,0.2679,0.2679,0.2763,0.2764,0,0,0,0,0,0,0,0,0,0,0,0.26,0.2601,0.2623,0.2625,0.2679,0.2679,0.2763,0.2764,0,0,0,0,0,0,0,0,0,0,0,0.26,0.2601,0.2601,0.2625,0.2679,0.2679,0.2763,0.2717,0,0,0,0,0,0,0,0,0,0,0.2662,0.2641,0.2601,0.2601,0.2625,0.2679,0.2679,0.2714,0.272,0.2744,0,0.2755,0,0.2767,0.2771,0.2771,0,0,0,0.2619,0.2636,0.2653,0.2601,0.2626,0.2679,0.2653,0.2717,0.2723,0.2752,0.2757,0.276,0.2769,0.2771,0.2772,0.2877,0.2877,0,0,0.2616,0.2609,0.2649,0.2657,0.2645,0.2651,0.2655,0.2721,0.2728,0.2757,0.2762,0.277,0.2772,0.2773,0.2877,0.2877,0,0,0,0.2611,0.2607,0.2622,0.2653,0.2666,0.2653,0.2657,0.2725,0.2731,0.2763,0.2771,0.2772,0.2774,0.2876,0.2877,0.2922,0,0,0,0.2609,0.2605,0.262,0.2616,0.2664,0.2695,0.266,0.2726,0.2734,0.2771,0.2772,0.2774,0.2876,0.2876,0.292,0.292,0,0,0,0.2597,0.2603,0.2611,0.2616,0.2643,0.2694,0.2703,0.2727,0.2739,0.2771,0.2775,0.2875,0.2876,0.2918,0.2918,0.2971,0,0,0,0.2586,0.2599,0.2611,0.263,0.2643,0.2688,0.2702,0.2748,0.2777,0.2773,0.2876,0.2877,0.2917,0.2916,0.2968,0.2882,0.2886,0,0,0.2594,0.26,0.2611,0.2623,0.2662,0.2679,0.2744,0.2793,0.28,0.2853,0.2855,0.2921,0.2917,0.297,0.2941,0.2943,0,0,0,0.2608,0.2612,0.2627,0.2653,0.2691,0.2743,0.279,0.2822,0.2882,0.2824,0.2929,0.2925,0.2957,0.2901,0.2902,0.2882,0.2881,0.2881,0.2881,0.2592,0.2616,0.2634,0.2672,0.2714,0.2801,0.2851,0.2904,0.2916,0.2954,0.2969,0.3045,0.2986,0.2986,0.2987,0.2987,0.2987,0.2987,0.2988,0.2586,0.2584,0.2633,0.266,0.2733,0.2802,0.2918,0.296,0.3045,0.3022,0.3052,0.2959,0.299,0.2991,0.2991,0.299,0.299,0.2989,0.2989,0.255,0.2552,0.2577,0.2629,0.271,0.2815,0.2912,0.301,0.3071,0.3109,0.3063,0.3061,0.307,0.314,0.314,0.314,0.314,0.3141,0.3141,0.2497,0.2521,0.2532,0.2602,0.2639,0.2751,0.2916,0.2982,0.307,0.3094,0.3094,0.3097,0.3092,0.3079,0.3145,0.3144,0.3143,0.3143,0.3143,0.2442,0.246,0.2466,0.249,0.2575,0.2594,0.2786,0.2905,0.3012,0.3033,0.3093,0.3093,0.307,0.3066,0.3053,0.3108,0.3108,0.3108,0.3108,0.2395,0.241,0.2386,0.2393,0.2438,0.2512,0.2498,0.2593,0.2787,0.2828,0.284,0.2764,0.2773,0.2728,0.2732,0.271,0.2676,0.2675,0.2674,0.2358,0.2358,0.2309,0.2317,0.2351,0.2366,0.2266,0.2177,0.2334,0.2652,0.2708,0.309,0.3009,0.3011,0.2964,0.2963,0.2936,0,0]},{"header":{"parameterUnit":"m.s-1","parameterCategory":2,"la1":30.2992,"la2":30.254,"lo1":-89.0895,"lo2":-89.0443,"dy":0.0025,"dx":0.0025,"nx":19,"ny":19,"refTime":"2026-05-03T21:00:00:Z","depth":"2","parameterNumber":3,"parameterNumberName":"V-component_of_CURRENTS"},"data":[0,0,0,0.0344,0.0345,0.0359,0.0359,0.0361,0.0361,0,0,0,0,0,0,0,0,0,0,0,0.0339,0.0339,0.0344,0.0345,0.0359,0.0359,0.0361,0.0361,0,0,0,0,0,0,0,0,0,0,0,0.0339,0.0339,0.034,0.0345,0.0359,0.0359,0.0361,0.0352,0,0,0,0,0,0,0,0,0,0,0.0339,0.0336,0.0339,0.034,0.0345,0.0359,0.0359,0.0352,0.0353,0.0352,0,0.0362,0,0.0365,0.0362,0.0362,0,0,0,0.0337,0.0335,0.0345,0.034,0.0345,0.0359,0.035,0.0353,0.0354,0.0353,0.0362,0.0362,0.0365,0.0362,0.0362,0.0406,0.0407,0,0,0.0336,0.0334,0.0345,0.0346,0.0358,0.035,0.0351,0.0353,0.0354,0.0362,0.0362,0.0365,0.0362,0.0362,0.0406,0.0406,0,0,0,0.0339,0.0333,0.0343,0.0346,0.0352,0.0351,0.0352,0.0354,0.0359,0.0362,0.0365,0.0362,0.0362,0.0405,0.0406,0.0489,0,0,0,0.0338,0.0336,0.0343,0.034,0.0352,0.0355,0.0352,0.0359,0.036,0.0365,0.0362,0.0362,0.0405,0.0406,0.0486,0.0541,0,0,0,0.0337,0.0335,0.0341,0.034,0.0351,0.0355,0.036,0.0359,0.0362,0.0362,0.0362,0.0405,0.0406,0.0483,0.0535,0.0578,0,0,0,0.0327,0.0358,0.0341,0.0378,0.0351,0.04,0.036,0.0385,0.0392,0.0362,0.0405,0.0406,0.0482,0.0531,0.0575,0.0632,0.0653,0,0,0.0365,0.0362,0.0386,0.0372,0.0435,0.0397,0.0459,0.0443,0.0404,0.04,0.0401,0.0487,0.0534,0.0577,0.0691,0.0711,0,0,0,0.0398,0.0419,0.0434,0.0464,0.0483,0.0517,0.0496,0.0486,0.048,0.0413,0.0485,0.0512,0.0537,0.0563,0.0579,0.0411,0.0411,0.0411,0.0411,0.0441,0.0462,0.0521,0.0553,0.0582,0.0601,0.0618,0.0598,0.0546,0.0552,0.0578,0.0667,0.0696,0.0709,0.0564,0.0565,0.0565,0.0565,0.0565,0.0525,0.057,0.0597,0.066,0.0691,0.074,0.0747,0.0718,0.072,0.0655,0.0674,0.0647,0.0731,0.0572,0.0571,0.057,0.0569,0.0569,0.0568,0.0566,0.0597,0.063,0.0729,0.0812,0.0843,0.0931,0.0891,0.0815,0.083,0.0836,0.0835,0.0725,0.0832,0.0832,0.0833,0.0833,0.0833,0.0834,0.0599,0.0641,0.0719,0.0812,0.089,0.0998,0.1038,0.1049,0.1015,0.0948,0.0948,0.0757,0.0748,0.0739,0.084,0.0839,0.0838,0.0838,0.0837,0.0669,0.0681,0.0804,0.0884,0.1071,0.1228,0.1243,0.1276,0.1233,0.1233,0.1006,0.0999,0.0979,0.0966,0.0962,0.1115,0.1115,0.1115,0.1115,0.0707,0.0725,0.0891,0.1037,0.1214,0.1342,0.1495,0.1464,0.1326,0.1198,0.1194,0.1143,0.113,0.1113,0.1096,0.1093,0.128,0.128,0.128,0.0763,0.0808,0.0932,0.1074,0.1284,0.147,0.1622,0.1568,0.132,0.1283,0.1186,0.1133,0.1043,0.1029,0.0986,0.0966,0.0953,0,0]}],[{"header":{"parameterUnit":"m.s-1","parameterCategory":2,"la1":30.2992,"la2":30.254,"lo1":-89.0895,"lo2":-89.0443,"dy":0.0025,"dx":0.0025,"nx":19,"ny":19,"refTime":"2026-05-03T21:00:00:Z","depth":"4","parameterNumber":2,"parameterNumberName":"U-component_of_CURRENTS"},"data":[0,0,0,0.1822,0.1825,0.1943,0.1943,0.202,0.202,0,0,0,0,0,0,0,0,0,0,0,0.179,0.1791,0.1822,0.1825,0.1943,0.1943,0.202,0.202,0,0,0,0,0,0,0,0,0,0,0,0.179,0.1791,0.1793,0.1825,0.1942,0.1943,0.202,0.1948,0,0,0,0,0,0,0,0,0,0,0.1843,0.1833,0.1791,0.1793,0.1826,0.1942,0.1943,0.1946,0.1953,0.1947,0,0.1981,0,0.2,0.2024,0.2024,0,0,0,0.1821,0.1827,0.1851,0.1793,0.1827,0.1942,0.1888,0.195,0.1958,0.1956,0.1983,0.1986,0.2001,0.2025,0.2025,0.2117,0.2118,0,0,0.1815,0.1814,0.1846,0.1857,0.1878,0.1885,0.1892,0.1956,0.1975,0.1983,0.1988,0.2002,0.2025,0.2025,0.2117,0.2118,0,0,0,0.1799,0.181,0.1834,0.1853,0.1879,0.1888,0.1897,0.1972,0.1979,0.1989,0.2003,0.2025,0.2026,0.2116,0.2117,0.2187,0,0,0,0.1794,0.18,0.1831,0.1832,0.1879,0.1939,0.1912,0.1975,0.1983,0.2003,0.2025,0.2027,0.2116,0.2117,0.2183,0.2188,0,0,0,0.1781,0.1799,0.1817,0.1832,0.1883,0.1939,0.195,0.1978,0.1991,0.2024,0.2027,0.2115,0.2117,0.218,0.2184,0.2236,0,0,0,0.1768,0.1793,0.1818,0.1852,0.1882,0.1937,0.195,0.2011,0.2044,0.2026,0.2116,0.2117,0.2179,0.2181,0.2233,0.1943,0,0,0,0.1779,0.1795,0.181,0.1834,0.188,0.192,0.1991,0.2051,0.206,0.2087,0.209,0.2184,0.2184,0.2235,0.2027,0,0,0,0,0.1799,0.1813,0.183,0.1873,0.1917,0.1986,0.2045,0.2083,0.2158,0.2088,0.2193,0.219,0.2221,0.2043,0.2124,0.2124,0.2123,0.2123,0.2123,0.179,0.1816,0.1844,0.189,0.1943,0.2045,0.211,0.2174,0.2185,0.2242,0.2255,0.2347,0.2163,0.2276,0.2276,0.2277,0.2277,0.2277,0.2277,0.1777,0.1778,0.1849,0.1891,0.198,0.2063,0.2185,0.2241,0.2343,0.2325,0.2353,0.2137,0.2284,0.2283,0.2282,0.2281,0.2281,0.228,0.228,0.1733,0.1737,0.1793,0.1872,0.198,0.2098,0.2198,0.2314,0.2389,0.2436,0.2259,0.2393,0.2378,0.2472,0.2472,0.2472,0.2472,0.2473,0.2473,0.1656,0.1706,0.1749,0.1852,0.1917,0.2043,0.2225,0.2282,0.2392,0.2289,0.2465,0.2412,0.2406,0.2389,0.2477,0.2476,0.2476,0.2475,0.2475,0.1573,0.1626,0.1664,0.1724,0.1847,0.1909,0.2116,0.2162,0.2208,0.2179,0.221,0.2222,0.2166,0.2166,0.2138,0.2155,0.2152,0.2148,0,0.1514,0.1541,0.1578,0.162,0.1665,0.1808,0.1795,0.1897,0.1997,0.193,0.2219,0.2253,0.2259,0.2194,0.2189,0.2153,0,0,0,0.1462,0.1483,0.1473,0.1527,0.1556,0.1623,0.1777,0.1745,0.1983,0.1939,0.2063,0.2085,0.2318,0.249,0.2433,0.2425,0.2394,0,0]},{"header":{"parameterUnit":"m.s-1","parameterCategory":2,"la1":30.2992,"la2":30.254,"lo1":-89.0895,"lo2":-89.0443,"dy":0.0025,"dx":0.0025,"nx":19,"ny":19,"refTime":"2026-05-03T21:00:00:Z","depth":"4","parameterNumber":3,"parameterNumberName":"V-component_of_CURRENTS"},"data":[0,0,0,0.0294,0.0295,0.0327,0.0327,0.0345,0.0345,0,0,0,0,0,0,0,0,0,0,0,0.0285,0.0285,0.0294,0.0295,0.0327,0.0327,0.0345,0.0345,0,0,0,0,0,0,0,0,0,0,0,0.0285,0.0285,0.0286,0.0295,0.0327,0.0327,0.0345,0.0326,0,0,0,0,0,0,0,0,0,0,0.0298,0.0292,0.0285,0.0286,0.0296,0.0327,0.0327,0.0325,0.0327,0.0326,0,0.0337,0,0.0342,0.0346,0.0346,0,0,0,0.0291,0.029,0.0301,0.0286,0.0296,0.0327,0.0311,0.0326,0.0328,0.0328,0.0337,0.0338,0.0343,0.0346,0.0347,0.0388,0.0389,0,0,0.029,0.0287,0.03,0.0303,0.0311,0.031,0.0312,0.0328,0.0331,0.0337,0.0338,0.0343,0.0347,0.0347,0.0388,0.0388,0,0,0,0.0287,0.0285,0.0296,0.0302,0.031,0.0311,0.0314,0.033,0.0335,0.0339,0.0343,0.0347,0.0347,0.0388,0.0388,0.0459,0,0,0,0.0286,0.0284,0.0296,0.0293,0.031,0.0323,0.0316,0.0334,0.0336,0.0343,0.0347,0.0347,0.0387,0.0388,0.0456,0.05,0,0,0,0.0282,0.0284,0.029,0.0293,0.0309,0.0323,0.0329,0.0335,0.0339,0.0346,0.0347,0.0387,0.0388,0.0454,0.0495,0.052,0,0,0,0.0273,0.0299,0.029,0.0323,0.0309,0.0356,0.0329,0.0359,0.0371,0.0347,0.0387,0.0388,0.0453,0.0492,0.0517,0.0504,0,0,0,0.0303,0.0303,0.0324,0.0317,0.0374,0.0351,0.0408,0.0407,0.0379,0.0379,0.038,0.0457,0.0494,0.0519,0.055,0,0,0,0,0.0332,0.0351,0.0365,0.0396,0.0417,0.0453,0.0446,0.044,0.0445,0.039,0.0454,0.0475,0.0488,0.0472,0.0392,0.0392,0.0392,0.0392,0.0392,0.0365,0.0386,0.0437,0.047,0.0499,0.0524,0.0542,0.0531,0.0497,0.0505,0.053,0.0595,0.058,0.0518,0.0519,0.0519,0.0519,0.0519,0.052,0.0428,0.0465,0.0498,0.0557,0.0591,0.0639,0.0648,0.063,0.0634,0.0591,0.0599,0.0544,0.0526,0.0525,0.0524,0.0523,0.0523,0.0522,0.0522,0.0454,0.048,0.0518,0.061,0.069,0.0726,0.0793,0.077,0.0712,0.0723,0.0687,0.0642,0.0639,0.0723,0.0724,0.0724,0.0724,0.0724,0.0725,0.0467,0.0511,0.0582,0.0674,0.0747,0.0839,0.088,0.0879,0.0829,0.0776,0.0748,0.0663,0.0656,0.065,0.0729,0.0729,0.0728,0.0727,0.0727,0.0506,0.0526,0.0632,0.0708,0.0872,0.0937,0.0978,0.0948,0.0935,0.089,0.0789,0.0785,0.0757,0.0748,0.0743,0.0853,0.0854,0.0854,0,0.0525,0.0544,0.0684,0.0808,0.0936,0.1,0.1013,0.1003,0.0917,0.0896,0.0924,0.0813,0.0807,0.0776,0.0768,0.0764,0,0,0,0.0556,0.0596,0.0693,0.0818,0.0966,0.1002,0.102,0.0988,0.0932,0.0914,0.0857,0.0856,0.082,0.0744,0.069,0.0682,0.0669,0,0]}]]